Time,TemperatureF,DewpointF,PressureIn,WindDirection,WindDirectionDegrees,WindSpeedMPH,WindSpeedGustMPH,Humidity,HourlyPrecipIn,Conditions,Clouds,dailyrainin,SoftwareType,DateUTC
2013-08-08 00:01:00,58.0,42.0,-100.00,SE,127,2.0,4.0,55,0.00,,,0.05,,2013-08-08 07:01:00,
2013-08-08 00:12:00,58.0,42.0,-100.00,SE,127,2.0,4.0,55,0.00,,,0.05,,2013-08-08 07:12:00,
2013-08-08 00:43:00,58.0,40.0,-100.00,SE,129,3.0,5.0,52,0.00,,,0.05,,2013-08-08 07:43:00,
2013-08-08 00:53:00,58.0,40.0,-100.00,SE,129,3.0,5.0,52,0.00,,,0.05,,2013-08-08 07:53:00,
2013-08-08 01:01:00,58.0,40.0,-100.00,SE,129,3.0,5.0,52,0.00,,,0.05,,2013-08-08 08:01:00,
2013-08-08 01:11:00,58.0,40.0,-100.00,SE,129,3.0,5.0,52,0.00,,,0.05,,2013-08-08 08:11:00,
2013-08-08 01:43:00,53.0,41.0,-100.00,ESE,117,2.0,4.0,64,0.00,,,0.00,,2013-08-08 08:43:00,
2013-08-08 01:53:00,53.0,41.0,-100.00,ESE,117,2.0,4.0,64,0.00,,,0.00,,2013-08-08 08:53:00,
2013-08-08 02:01:00,53.0,41.0,-100.00,ESE,117,2.0,4.0,64,0.00,,,0.00,,2013-08-08 09:01:00,
2013-08-08 02:11:00,53.0,41.0,-100.00,ESE,117,2.0,4.0,64,0.00,,,0.00,,2013-08-08 09:11:00,
2013-08-08 02:43:00,51.0,40.0,-100.00,SE,131,1.0,3.0,67,0.00,,,0.00,,2013-08-08 09:43:00,
2013-08-08 02:53:00,51.0,40.0,-100.00,SE,131,1.0,3.0,67,0.00,,,0.00,,2013-08-08 09:53:00,
2013-08-08 03:01:00,51.0,40.0,-100.00,SE,131,1.0,3.0,67,0.00,,,0.00,,2013-08-08 10:01:00,
2013-08-08 03:11:00,51.0,40.0,-100.00,SE,131,1.0,3.0,67,0.00,,,0.00,,2013-08-08 10:11:00,
2013-08-08 03:43:00,49.0,38.0,-100.00,SE,145,2.0,2.0,66,0.00,,,0.00,,2013-08-08 10:43:00,
2013-08-08 03:52:00,49.0,38.0,-100.00,SE,145,2.0,2.0,66,0.00,,,0.00,,2013-08-08 10:52:00,
2013-08-08 04:01:00,49.0,38.0,-100.00,SE,145,2.0,2.0,66,0.00,,,0.00,,2013-08-08 11:01:00,
2013-08-08 04:11:00,49.0,38.0,-100.00,SE,145,2.0,2.0,66,0.00,,,0.00,,2013-08-08 11:11:00,
2013-08-08 04:43:00,46.0,35.0,-100.00,ESE,123,2.0,3.0,65,0.00,,,0.00,,2013-08-08 11:43:00,
2013-08-08 04:52:00,46.0,35.0,-100.00,ESE,123,2.0,3.0,65,0.00,,,0.00,,2013-08-08 11:52:00,
2013-08-08 05:01:00,46.0,35.0,-100.00,ESE,123,2.0,3.0,65,0.00,,,0.00,,2013-08-08 12:01:00,
2013-08-08 05:11:00,46.0,35.0,-100.00,ESE,123,2.0,3.0,65,0.00,,,0.00,,2013-08-08 12:11:00,
2013-08-08 05:43:00,45.0,35.0,-100.00,South,177,1.0,2.0,67,0.00,,,0.00,,2013-08-08 12:43:00,
2013-08-08 05:53:00,45.0,35.0,-100.00,South,177,1.0,2.0,67,0.00,,,0.00,,2013-08-08 12:53:00,
2013-08-08 06:01:00,45.0,35.0,-100.00,South,177,1.0,2.0,67,0.00,,,0.00,,2013-08-08 13:01:00,
2013-08-08 06:11:00,45.0,35.0,-100.00,South,177,1.0,2.0,67,0.00,,,0.00,,2013-08-08 13:11:00,
2013-08-08 06:43:00,45.0,38.0,-100.00,ESE,106,2.0,3.0,75,0.00,,,0.00,,2013-08-08 13:43:00,
2013-08-08 06:53:00,45.0,38.0,-100.00,ESE,106,2.0,3.0,75,0.00,,,0.00,,2013-08-08 13:53:00,
2013-08-08 07:02:00,45.0,38.0,-100.00,ESE,106,2.0,3.0,75,0.00,,,0.00,,2013-08-08 14:02:00,
2013-08-08 07:11:00,45.0,38.0,-100.00,ESE,106,2.0,3.0,75,0.00,,,0.00,,2013-08-08 14:11:00,
2013-08-08 07:43:00,56.0,46.0,-100.00,ESE,110,1.0,3.0,70,0.00,,,0.00,,2013-08-08 14:43:00,
2013-08-08 07:53:00,56.0,46.0,-100.00,ESE,110,1.0,3.0,70,0.00,,,0.00,,2013-08-08 14:53:00,
2013-08-08 08:02:00,56.0,46.0,-100.00,ESE,110,1.0,3.0,70,0.00,,,0.00,,2013-08-08 15:02:00,
2013-08-08 08:11:00,56.0,46.0,-100.00,ESE,110,1.0,3.0,70,0.00,,,0.00,,2013-08-08 15:11:00,
2013-08-08 08:53:00,69.0,48.0,-100.00,West,272,2.0,3.0,48,0.00,,,0.00,,2013-08-08 15:53:00,
2013-08-08 09:01:00,69.0,48.0,-100.00,West,272,2.0,3.0,48,0.00,,,0.00,,2013-08-08 16:01:00,
2013-08-08 09:11:00,69.0,48.0,-100.00,West,272,2.0,3.0,48,0.00,,,0.00,,2013-08-08 16:11:00,
2013-08-08 09:52:00,74.0,34.0,-100.00,WSW,242,4.0,10.0,23,0.00,,,0.00,,2013-08-08 16:52:00,
2013-08-08 10:01:00,74.0,34.0,-100.00,WSW,242,4.0,10.0,23,0.00,,,0.00,,2013-08-08 17:01:00,
2013-08-08 10:11:00,74.0,34.0,-100.00,WSW,242,4.0,10.0,23,0.00,,,0.00,,2013-08-08 17:11:00,
2013-08-08 10:43:00,74.0,35.0,-100.00,SW,234,7.0,14.0,24,0.00,,,0.00,,2013-08-08 17:43:00,
2013-08-08 10:52:00,74.0,35.0,-100.00,SW,234,7.0,14.0,24,0.00,,,0.00,,2013-08-08 17:52:00,
2013-08-08 11:01:00,74.0,35.0,-100.00,SW,234,7.0,14.0,24,0.00,,,0.00,,2013-08-08 18:01:00,
2013-08-08 11:11:00,74.0,35.0,-100.00,SW,234,7.0,14.0,24,0.00,,,0.00,,2013-08-08 18:11:00,
2013-08-08 11:43:00,75.0,32.0,-100.00,WSW,246,6.0,15.0,21,0.00,,,0.00,,2013-08-08 18:43:00,
2013-08-08 11:52:00,75.0,32.0,-100.00,WSW,246,6.0,15.0,21,0.00,,,0.00,,2013-08-08 18:52:00,
2013-08-08 12:01:00,75.0,32.0,-100.00,WSW,246,6.0,15.0,21,0.00,,,0.00,,2013-08-08 19:01:00,
2013-08-08 12:11:00,75.0,32.0,-100.00,WSW,246,6.0,15.0,21,0.00,,,0.00,,2013-08-08 19:11:00,
2013-08-08 12:43:00,76.0,32.0,-100.00,SSE,162,5.0,17.0,20,0.00,,,0.00,,2013-08-08 19:43:00,
2013-08-08 12:57:00,76.0,32.0,-100.00,SSE,162,5.0,17.0,20,0.00,,,0.00,,2013-08-08 19:57:00,
2013-08-08 13:11:00,76.0,32.0,-100.00,SSE,162,5.0,17.0,20,0.00,,,0.00,,2013-08-08 20:11:00,
2013-08-08 13:42:00,77.0,35.0,-100.00,WNW,293,8.0,16.0,22,0.00,,,0.00,,2013-08-08 20:42:00,
2013-08-08 13:52:00,77.0,35.0,-100.00,WNW,293,8.0,16.0,22,0.00,,,0.00,,2013-08-08 20:52:00,
2013-08-08 14:01:00,77.0,35.0,-100.00,WNW,293,8.0,16.0,22,0.00,,,0.00,,2013-08-08 21:01:00,
2013-08-08 14:45:00,78.0,34.0,-100.00,South,176,7.0,16.0,20,0.00,,,0.00,,2013-08-08 21:45:00,
2013-08-08 14:56:00,78.0,34.0,-100.00,South,176,7.0,16.0,20,0.00,,,0.00,,2013-08-08 21:56:00,
2013-08-08 15:03:00,78.0,34.0,-100.00,South,176,7.0,16.0,20,0.00,,,0.00,,2013-08-08 22:03:00,
2013-08-08 15:49:00,80.0,35.0,-100.00,WNW,301,5.0,14.0,20,0.00,,,0.00,,2013-08-08 22:49:00,
2013-08-08 15:56:00,80.0,35.0,-100.00,WNW,301,5.0,14.0,20,0.00,,,0.00,,2013-08-08 22:56:00,
2013-08-08 16:03:00,80.0,35.0,-100.00,WNW,301,5.0,14.0,20,0.00,,,0.00,,2013-08-08 23:03:00,
2013-08-08 16:12:00,80.0,35.0,-100.00,WNW,301,5.0,14.0,20,0.00,,,0.00,,2013-08-08 23:12:00,
2013-08-08 16:57:00,76.0,36.0,-100.00,WSW,242,4.0,12.0,23,0.00,,,0.00,,2013-08-08 23:57:00,
2013-08-08 17:12:00,76.0,36.0,-100.00,WSW,242,4.0,12.0,23,0.00,,,0.00,,2013-08-09 00:12:00,
2013-08-08 17:48:00,74.0,35.0,-100.00,South,177,2.0,13.0,24,0.00,,,0.00,,2013-08-09 00:48:00,
2013-08-08 17:55:00,74.0,35.0,-100.00,South,177,2.0,13.0,24,0.00,,,0.00,,2013-08-09 00:55:00,
2013-08-08 18:01:00,74.0,35.0,-100.00,South,177,2.0,13.0,24,0.00,,,0.00,,2013-08-09 01:01:00,
2013-08-08 18:12:00,74.0,35.0,-100.00,South,177,2.0,13.0,24,0.00,,,0.00,,2013-08-09 01:12:00,
2013-08-08 18:46:00,77.0,34.0,-100.00,WSW,245,5.0,11.0,21,0.00,,,0.00,,2013-08-09 01:46:00,
2013-08-08 18:59:00,77.0,34.0,-100.00,WSW,245,5.0,11.0,21,0.00,,,0.00,,2013-08-09 01:59:00,
2013-08-08 19:12:00,77.0,34.0,-100.00,WSW,245,5.0,11.0,21,0.00,,,0.00,,2013-08-09 02:12:00,
2013-08-08 19:47:00,71.0,31.0,-100.00,SSE,162,4.0,12.0,23,0.00,,,0.00,,2013-08-09 02:47:00,
2013-08-08 20:04:00,71.0,31.0,-100.00,SSE,162,4.0,12.0,23,0.00,,,0.00,,2013-08-09 03:04:00,
2013-08-08 20:12:00,71.0,31.0,-100.00,SSE,162,4.0,12.0,23,0.00,,,0.00,,2013-08-09 03:12:00,
2013-08-08 20:47:00,65.0,30.0,-100.00,SSE,159,4.0,13.0,27,0.00,,,0.00,,2013-08-09 03:47:00,
2013-08-08 20:55:00,65.0,30.0,-100.00,SSE,159,4.0,13.0,27,0.00,,,0.00,,2013-08-09 03:55:00,
2013-08-08 21:01:00,65.0,30.0,-100.00,SSE,159,4.0,13.0,27,0.00,,,0.00,,2013-08-09 04:01:00,
2013-08-08 21:12:00,65.0,30.0,-100.00,SSE,159,4.0,13.0,27,0.00,,,0.00,,2013-08-09 04:12:00,
2013-08-08 21:43:00,65.0,29.0,-100.00,SSE,148,4.0,11.0,26,0.00,,,0.00,,2013-08-09 04:43:00,
2013-08-08 21:53:00,65.0,29.0,-100.00,SSE,148,4.0,11.0,26,0.00,,,0.00,,2013-08-09 04:53:00,
2013-08-08 22:01:00,65.0,29.0,-100.00,SSE,148,4.0,11.0,26,0.00,,,0.00,,2013-08-09 05:01:00,
2013-08-08 22:11:00,65.0,29.0,-100.00,SSE,148,4.0,11.0,26,0.00,,,0.00,,2013-08-09 05:11:00,
2013-08-08 22:43:00,65.0,30.0,-100.00,SSE,159,4.0,9.0,27,0.00,,,0.00,,2013-08-09 05:43:00,
2013-08-08 22:52:00,65.0,30.0,-100.00,SSE,159,4.0,9.0,27,0.00,,,0.00,,2013-08-09 05:52:00,
2013-08-08 23:01:00,65.0,30.0,-100.00,SSE,159,4.0,9.0,27,0.00,,,0.00,,2013-08-09 06:01:00,
2013-08-08 23:11:00,65.0,30.0,-100.00,SSE,159,4.0,9.0,27,0.00,,,0.00,,2013-08-09 06:11:00,
2013-08-08 23:43:00,63.0,29.0,-100.00,SSE,157,4.0,9.0,27,0.00,,,0.00,,2013-08-09 06:43:00,
2013-08-08 23:52:00,63.0,29.0,-100.00,SSE,157,4.0,9.0,27,0.00,,,0.00,,2013-08-09 06:52:00,